Time,TemperatureF,DewpointF,PressureIn,WindDirection,WindDirectionDegrees,WindSpeedMPH,WindSpeedGustMPH,Humidity,HourlyPrecipIn,Conditions,Clouds,dailyrainin,SoftwareType,DateUTC
2013-07-17 00:01:00,57.0,57.0,-100.00,ESE,103,1.0,3.0,99,0.00,,,-99.99,,2013-07-17 07:01:00,
2013-07-17 00:11:00,57.0,57.0,-100.00,ESE,103,1.0,3.0,99,0.00,,,-99.99,,2013-07-17 07:11:00,
2013-07-17 00:42:00,57.0,57.0,-100.00,ESE,119,2.0,3.0,99,0.00,,,-99.99,,2013-07-17 07:42:00,
2013-07-17 00:52:00,57.0,57.0,-100.00,ESE,119,2.0,3.0,99,0.00,,,-99.99,,2013-07-17 07:52:00,
2013-07-17 01:01:00,57.0,57.0,-100.00,ESE,119,2.0,3.0,99,0.00,,,-99.99,,2013-07-17 08:01:00,
2013-07-17 01:11:00,57.0,57.0,-100.00,ESE,119,2.0,3.0,99,0.00,,,-99.99,,2013-07-17 08:11:00,
2013-07-17 01:43:00,57.0,57.0,-100.00,ESE,114,2.0,3.0,99,0.00,,,-99.99,,2013-07-17 08:43:00,
2013-07-17 01:53:00,57.0,57.0,-100.00,ESE,114,2.0,3.0,99,0.00,,,-99.99,,2013-07-17 08:53:00,
2013-07-17 02:01:00,57.0,57.0,-100.00,ESE,114,2.0,3.0,99,0.00,,,-99.99,,2013-07-17 09:01:00,
2013-07-17 02:11:00,57.0,57.0,-100.00,ESE,114,2.0,3.0,99,0.00,,,-99.99,,2013-07-17 09:11:00,
2013-07-17 02:43:00,55.0,55.0,-100.00,SE,146,1.0,4.0,99,0.00,,,-99.99,,2013-07-17 09:43:00,
2013-07-17 02:52:00,55.0,55.0,-100.00,SE,146,1.0,4.0,99,0.00,,,-99.99,,2013-07-17 09:52:00,
2013-07-17 03:01:00,55.0,55.0,-100.00,SE,146,1.0,4.0,99,0.00,,,-99.99,,2013-07-17 10:01:00,
2013-07-17 03:11:00,55.0,55.0,-100.00,SE,146,1.0,4.0,99,0.00,,,-99.99,,2013-07-17 10:11:00,
2013-07-17 03:43:00,56.0,56.0,-100.00,SE,133,3.0,4.0,99,0.00,,,-99.99,,2013-07-17 10:43:00,
2013-07-17 03:52:00,56.0,56.0,-100.00,SE,133,3.0,4.0,99,0.00,,,-99.99,,2013-07-17 10:52:00,
2013-07-17 04:01:00,56.0,56.0,-100.00,SE,133,3.0,4.0,99,0.00,,,-99.99,,2013-07-17 11:01:00,
2013-07-17 04:11:00,56.0,56.0,-100.00,SE,133,3.0,4.0,99,0.00,,,-99.99,,2013-07-17 11:11:00,
2013-07-17 04:42:00,55.0,55.0,-100.00,SE,131,1.0,4.0,99,0.00,,,-99.99,,2013-07-17 11:42:00,
2013-07-17 04:52:00,55.0,55.0,-100.00,SE,131,1.0,4.0,99,0.00,,,-99.99,,2013-07-17 11:52:00,
2013-07-17 05:01:00,55.0,55.0,-100.00,SE,131,1.0,4.0,99,0.00,,,-99.99,,2013-07-17 12:01:00,
2013-07-17 05:12:00,55.0,55.0,-100.00,SE,131,1.0,4.0,99,0.00,,,-99.99,,2013-07-17 12:12:00,
2013-07-17 05:43:00,53.0,53.0,-100.00,ESE,120,1.0,4.0,99,0.00,,,-99.99,,2013-07-17 12:43:00,
2013-07-17 05:53:00,53.0,53.0,-100.00,ESE,120,1.0,4.0,99,0.00,,,-99.99,,2013-07-17 12:53:00,
2013-07-17 06:01:00,53.0,53.0,-100.00,ESE,120,1.0,4.0,99,0.00,,,-99.99,,2013-07-17 13:01:00,
2013-07-17 06:11:00,53.0,53.0,-100.00,ESE,120,1.0,4.0,99,0.00,,,-99.99,,2013-07-17 13:11:00,
2013-07-17 06:52:00,53.0,53.0,-100.00,ESE,115,1.0,2.0,99,0.00,,,-99.99,,2013-07-17 13:52:00,
2013-07-17 07:02:00,53.0,53.0,-100.00,ESE,115,1.0,2.0,99,0.00,,,-99.99,,2013-07-17 14:02:00,
2013-07-17 07:11:00,53.0,53.0,-100.00,ESE,115,1.0,2.0,99,0.00,,,-99.99,,2013-07-17 14:11:00,
2013-07-17 07:43:00,59.0,59.0,-100.00,West,273,1.0,1.0,99,0.00,,,-99.99,,2013-07-17 14:43:00,
2013-07-17 07:52:00,59.0,59.0,-100.00,West,273,1.0,1.0,99,0.00,,,-99.99,,2013-07-17 14:52:00,
2013-07-17 08:01:00,59.0,59.0,-100.00,West,273,1.0,1.0,99,0.00,,,-99.99,,2013-07-17 15:01:00,
2013-07-17 08:12:00,59.0,59.0,-100.00,West,273,1.0,1.0,99,0.00,,,-99.99,,2013-07-17 15:12:00,
2013-07-17 08:42:00,69.0,58.0,-100.00,SW,229,3.0,8.0,68,0.00,,,-99.99,,2013-07-17 15:42:00,
2013-07-17 08:52:00,69.0,58.0,-100.00,SW,229,3.0,8.0,68,0.00,,,-99.99,,2013-07-17 15:52:00,
2013-07-17 09:01:00,69.0,58.0,-100.00,SW,229,3.0,8.0,68,0.00,,,-99.99,,2013-07-17 16:01:00,
2013-07-17 09:11:00,69.0,58.0,-100.00,SW,229,3.0,8.0,68,0.00,,,-99.99,,2013-07-17 16:11:00,
2013-07-17 10:43:00,73.0,55.0,-100.00,NW,306,5.0,11.0,54,-99.99,,,0.35,,2013-07-17 17:43:00,
2013-07-17 10:52:00,73.0,55.0,-100.00,NW,306,5.0,11.0,54,-99.99,,,0.35,,2013-07-17 17:52:00,
2013-07-17 11:01:00,73.0,55.0,-100.00,NW,306,5.0,11.0,54,-99.99,,,0.35,,2013-07-17 18:01:00,
2013-07-17 11:11:00,73.0,55.0,-100.00,NW,306,5.0,11.0,54,-99.99,,,0.35,,2013-07-17 18:11:00,
2013-07-17 11:43:00,73.0,53.0,-100.00,WNW,296,7.0,15.0,50,0.00,,,0.35,,2013-07-17 18:43:00,
2013-07-17 11:52:00,73.0,53.0,-100.00,WNW,296,7.0,15.0,50,0.00,,,0.35,,2013-07-17 18:52:00,
2013-07-17 12:01:00,73.0,53.0,-100.00,WNW,296,7.0,15.0,50,0.00,,,0.35,,2013-07-17 19:01:00,
2013-07-17 12:11:00,73.0,53.0,-100.00,WNW,296,7.0,15.0,50,0.00,,,0.35,,2013-07-17 19:11:00,
2013-07-17 12:43:00,75.0,57.0,-100.00,West,277,7.0,12.0,53,0.00,,,0.35,,2013-07-17 19:43:00,
2013-07-17 12:53:00,75.0,57.0,-100.00,West,277,7.0,12.0,53,0.00,,,0.35,,2013-07-17 19:53:00,
2013-07-17 13:01:00,75.0,57.0,-100.00,West,277,7.0,12.0,53,0.00,,,0.35,,2013-07-17 20:01:00,
2013-07-17 13:11:00,75.0,57.0,-100.00,West,277,7.0,12.0,53,0.00,,,0.35,,2013-07-17 20:11:00,
2013-07-17 13:43:00,76.0,56.0,-100.00,West,272,5.0,13.0,50,0.00,,,0.35,,2013-07-17 20:43:00,
2013-07-17 13:52:00,76.0,56.0,-100.00,West,272,5.0,13.0,50,0.00,,,0.35,,2013-07-17 20:52:00,
2013-07-17 14:01:00,76.0,56.0,-100.00,West,272,5.0,13.0,50,0.00,,,0.35,,2013-07-17 21:01:00,
2013-07-17 14:11:00,76.0,56.0,-100.00,West,272,5.0,13.0,50,0.00,,,0.35,,2013-07-17 21:11:00,
2013-07-17 14:42:00,71.0,55.0,-100.00,SE,129,7.0,15.0,58,0.00,,,0.35,,2013-07-17 21:42:00,
2013-07-17 14:52:00,71.0,55.0,-100.00,SE,129,7.0,15.0,58,0.00,,,0.35,,2013-07-17 21:52:00,
2013-07-17 15:01:00,71.0,55.0,-100.00,SE,129,7.0,15.0,58,0.00,,,0.35,,2013-07-17 22:01:00,
2013-07-17 15:11:00,71.0,55.0,-100.00,SE,129,7.0,15.0,58,0.00,,,0.35,,2013-07-17 22:11:00,
2013-07-17 15:43:00,67.0,57.0,-100.00,SSE,150,3.0,15.0,71,0.00,,,0.35,,2013-07-17 22:43:00,
2013-07-17 15:53:00,67.0,57.0,-100.00,SSE,150,3.0,15.0,71,0.00,,,0.35,,2013-07-17 22:53:00,
2013-07-17 16:01:00,67.0,57.0,-100.00,SSE,150,3.0,15.0,71,0.00,,,0.35,,2013-07-17 23:01:00,
2013-07-17 16:11:00,67.0,57.0,-100.00,SSE,150,3.0,15.0,71,0.00,,,0.35,,2013-07-17 23:11:00,
2013-07-17 16:43:00,70.0,59.0,-100.00,SE,124,7.0,13.0,68,0.00,,,-99.99,,2013-07-17 23:43:00,
2013-07-17 16:52:00,70.0,59.0,-100.00,SE,124,7.0,13.0,68,0.00,,,-99.99,,2013-07-17 23:52:00,
2013-07-17 17:01:00,70.0,59.0,-100.00,SE,124,7.0,13.0,68,0.00,,,-99.99,,2013-07-18 00:01:00,
2013-07-17 17:11:00,70.0,59.0,-100.00,SE,124,7.0,13.0,68,0.00,,,-99.99,,2013-07-18 00:11:00,
2013-07-17 18:01:00,74.0,54.0,-100.00,SE,143,5.0,12.0,50,0.00,,,-99.99,,2013-07-18 01:01:00,
2013-07-17 18:11:00,74.0,54.0,-100.00,SE,143,5.0,12.0,50,0.00,,,-99.99,,2013-07-18 01:11:00,
2013-07-17 18:43:00,75.0,52.0,-100.00,West,266,6.0,12.0,45,0.00,,,0.04,,2013-07-18 01:43:00,
2013-07-17 18:53:00,75.0,52.0,-100.00,West,266,6.0,12.0,45,0.00,,,0.04,,2013-07-18 01:53:00,
2013-07-17 19:01:00,75.0,52.0,-100.00,West,266,6.0,12.0,45,0.00,,,0.04,,2013-07-18 02:01:00,
2013-07-17 19:11:00,75.0,52.0,-100.00,West,266,6.0,12.0,45,0.00,,,0.04,,2013-07-18 02:11:00,
2013-07-17 19:43:00,72.0,53.0,-100.00,West,264,5.0,9.0,52,0.00,,,0.01,,2013-07-18 02:43:00,
2013-07-17 19:52:00,72.0,53.0,-100.00,West,264,5.0,9.0,52,0.00,,,0.01,,2013-07-18 02:52:00,
2013-07-17 20:01:00,72.0,53.0,-100.00,West,264,5.0,9.0,52,0.00,,,0.01,,2013-07-18 03:01:00,
2013-07-17 20:11:00,72.0,53.0,-100.00,West,264,5.0,9.0,52,0.00,,,0.01,,2013-07-18 03:11:00,
2013-07-17 20:43:00,67.0,54.0,-100.00,ENE,77,2.0,7.0,64,0.00,,,0.00,,2013-07-18 03:43:00,
2013-07-17 20:52:00,67.0,54.0,-100.00,ENE,77,2.0,7.0,64,0.00,,,0.00,,2013-07-18 03:52:00,
2013-07-17 21:02:00,67.0,54.0,-100.00,ENE,77,2.0,7.0,64,0.00,,,0.00,,2013-07-18 04:02:00,
2013-07-17 21:12:00,67.0,54.0,-100.00,ENE,77,2.0,7.0,64,0.00,,,0.00,,2013-07-18 04:12:00,
2013-07-17 21:43:00,65.0,57.0,-100.00,SSE,155,3.0,9.0,75,0.00,,,0.00,,2013-07-18 04:43:00,
2013-07-17 21:52:00,65.0,57.0,-100.00,SSE,155,3.0,9.0,75,0.00,,,0.00,,2013-07-18 04:52:00,
2013-07-17 22:01:00,65.0,57.0,-100.00,SSE,155,3.0,9.0,75,0.00,,,0.00,,2013-07-18 05:01:00,
2013-07-17 22:11:00,65.0,57.0,-100.00,SSE,155,3.0,9.0,75,0.00,,,0.00,,2013-07-18 05:11:00,
2013-07-17 23:43:00,57.0,53.0,-100.00,ESE,118,3.0,5.0,85,-99.99,,,0.00,,2013-07-18 06:43:00,
2013-07-17 23:52:00,57.0,53.0,-100.00,ESE,118,3.0,5.0,85,-99.99,,,0.00,,2013-07-18 06:52:00,